Home > Weather > Green Bay > Past weeks

Flag for USA Past Weather in Green Bay, Wisconsin, USA — Yesterday and Last 2 Weeks

Now
63 °F

Fog.


Feels Like: 63 °F
Forecast: 63 / 81 °F
Wind: N/A

Location: Austin Straubel International Airport

Current Time: Aug 28, 2016 at 5:37:15 AM

Latest Report: Aug 28, 2016 at 4:53 AM


Visibility: 6 mi

Pressure: 30.15 "Hg

Humidity: 100%

Dew Point: 63 °F

Location of Green BayLocation

Past Weather in Green Bay — Graph

°F

Green Bay Temperature Yesterday

Maximum temperature yesterday: 66 °F (at 3:53 PM)
Minimum temperature yesterday: 62 °F (at 12:53 AM)
Average temperature yesterday: 64 °F

High & Low Weather Summary for the Past Weeks

 TemperatureHumidityPressure
High87 °F (Aug 18, 2:53 PM)100% (Aug 13, 4:53 AM)30.16 "Hg (Aug 13, 4:53 AM)
Low50 °F (Aug 22, 4:53 AM)51% (Aug 18, 1:53 PM)29.49 "Hg (Aug 20, 2:53 PM)
Average69 °F87%29.96 "Hg
* Reported Aug 13 4:53 AM — Aug 28 4:04 AM, Green Bay, Weather by CustomWeather, © 2016

Note: Actual official high and low records may vary slightly from our data, if they occured in-between our weather recording intervals... More about our weather records

Advertising

Green Bay Weather History for the Previous 24 Hours

Scroll right to see more
 ConditionsComfort  
Time TempWeatherWind HumidityBarometerVisibility
4:04 AM
Sun, Aug 28
63 °FFog.N/A100%30.13 "Hg6 mi
3:53 AM63 °FFog.N/A100%30.12 "Hg6 mi
3:00 AM62 °FFog.N/A100%30.11 "Hg1 mi
1:53 AM62 °FFog.3 mph100%30.09 "Hg0 mi
1:01 AM62 °FFog.5 mph100%30.09 "Hg3 mi
12:53 AM62 °FFog.5 mph100%30.09 "Hg3 mi
11:53 PM
Sat, Aug 27
64 °FFog.3 mph100%30.09 "Hg5 mi
11:04 PM64 °FFog.5 mph100%30.09 "Hg4 mi
9:53 PM64 °FLow clouds.No wind100%30.07 "Hg10 mi
8:53 PM65 °FLow clouds.No wind100%30.05 "Hg10 mi
7:53 PM65 °FLow clouds.No wind100%30.05 "Hg10 mi
6:53 PM65 °FFog.3 mph100%30.04 "Hg5 mi
5:53 PM64 °FFog.6 mph100%30.03 "Hg5 mi
5:03 PM64 °FFog.5 mph100%30.03 "Hg2 mi
4:53 PM64 °FFog.5 mph100%30.03 "Hg3 mi
3:53 PM66 °FOvercast.7 mph93%30.03 "Hg10 mi
2:53 PM65 °FOvercast.7 mph97%30.05 "Hg10 mi
1:53 PM65 °FLight rain. Overcast.6 mph97%30.06 "Hg10 mi
12:53 PM65 °FMostly cloudy.7 mph94%30.06 "Hg10 mi
11:53 AM63 °FMostly cloudy.8 mph97%30.08 "Hg10 mi
10:53 AM63 °FMostly cloudy.8 mph97%30.10 "Hg10 mi
9:53 AM62 °FLight rain. Mostly cloudy.8 mph100%30.12 "Hg9 mi
8:53 AM62 °FLight rain. Overcast.3 mph100%30.14 "Hg8 mi
7:53 AM63 °FRain. Cloudy.No wind97%30.14 "Hg8 mi
6:53 AM62 °FOvercast.6 mph100%30.13 "Hg10 mi
5:53 AM62 °FLight rain. Passing clouds.6 mph100%30.13 "Hg10 mi
Weather by CustomWeather, © 2016

See weather overviewHow to use our weather pages